This demonstration page uses our WeatherBlox Daily Observations layout. Learn more.

39.29038, -76.61219

Hourly Observations for October 26, 2018

Temp ( °F °C ) Dew Point ( °F °C ) Humidity (%) Winds ( mph kmh ) Pressure ( in mb ) Visibility ( mi km ) Precip ( " mm )
12:54 am 00:54 undefined 50 10 36 2.2 59 59 undefined N/A 30.12 1020 N/A 0 0
1:54 am 01:54 undefined 50 10 36 2.2 59 59 undefined N/A 30.11 1020 N/A 0 0
2:54 am 02:54 undefined 49 9.4 37 2.8 64 64 undefined N/A 30.11 1020 N/A 0 0
3:54 am 03:54 undefined 47 8.3 34 1.1 61 61 undefined N/A 30.11 1020 N/A 0 0
4:54 am 04:54 undefined 45 7.2 34 1.1 66 66 undefined N/A 30.13 1020 N/A 0 0
5:54 am 05:54 undefined 44 6.7 33 0.6 65 65 undefined N/A 30.09 1019 N/A 0 0
6:54 am 06:54 undefined 44 6.7 32 0 63 63 undefined N/A 30.12 1020 N/A 0 0
7:54 am 07:54 undefined 44 6.7 32 0 63 63 undefined N/A 30.13 1020 N/A 0 0
8:54 am 08:54 undefined 45 7.2 33 0.6 63 63 undefined N/A 30.13 1020 N/A 0 0
9:54 am 09:54 undefined 45 7.2 34 1.1 66 66 undefined N/A 30.12 1020 N/A 0 0
10:54 am 10:54 undefined 46 7.8 34 1.1 63 63 undefined N/A 30.12 1020 N/A 0 0
11:54 am 11:54 undefined 48 8.9 34 1.1 58 58 undefined N/A 30.13 1020 N/A 0 0
12:54 pm 12:54 undefined 48 8.9 33 0.6 56 56 undefined N/A 30.11 1020 N/A 0 0
1:54 pm 13:54 undefined 49 9.4 34 1.1 56 56 undefined N/A 30.09 1019 N/A 0 0
2:54 pm 14:54 undefined 49 9.4 36 2.2 61 61 undefined N/A 30.05 1018 N/A 0 0
3:54 pm 15:54 undefined 50 10 36 2.2 59 59 undefined N/A 30.02 1017 N/A 0 0
4:54 pm 16:54 undefined 49 9.4 35 1.7 59 59 undefined N/A 30.01 1016 N/A 0 0
5:54 pm 17:54 undefined 49 9.4 37 2.8 64 64 undefined N/A 29.98 1015 N/A 0 0
6:54 pm 18:54 undefined 48 8.9 39 3.9 71 71 undefined N/A 29.95 1014 N/A 0.01 0.254
7:54 pm 19:54 undefined 47 8.3 40 4.4 77 77 undefined N/A 29.95 1014 N/A 0.02 0.508
8:54 pm 20:54 undefined 47 8.3 41 5 80 80 undefined N/A 29.92 1013 N/A 0.04 1.016
9:54 pm 21:54 undefined 47 8.3 42 5.6 83 83 undefined N/A 29.89 1012 N/A 0.07 1.778
10:54 pm 22:54 undefined 47 8.3 44 6.7 90 90 undefined N/A 29.85 1011 N/A 0.11 2.794
11:54 pm 23:54 undefined 48 8.9 45 7.2 89 89 undefined N/A 29.83 1010 N/A 0.14 3.556

Powered by AerisWeather